Time,TemperatureF,DewpointF,PressureIn,WindDirection,WindDirectionDegrees,WindSpeedMPH,WindSpeedGustMPH,Humidity,HourlyPrecipIn,Conditions,Clouds,dailyrainin,SoftwareType,DateUTC
2013-09-11 00:00:00,71.5,66.4,29.90,SSW,207,0.0,0.0,84,0.00,,OVC120,0.00,VWS V14.00,2013-09-11 04:00:00,
2013-09-11 00:01:00,69.7,66.3,29.90,SSW,207,0.0,0.0,89,0.00,,CLR,0.00,VWS V14.00,2013-09-11 04:01:00,
2013-09-11 00:02:00,69.7,66.3,29.90,SSW,207,0.0,0.0,89,0.00,,CLR,0.00,VWS V14.00,2013-09-11 04:02:00,
2013-09-11 00:05:00,69.7,66.3,29.90,SSW,207,0.0,0.0,89,0.00,,CLR,0.00,VWS V14.00,2013-09-11 04:05:00,
2013-09-11 00:10:00,69.9,66.5,29.90,SSW,207,0.0,0.0,89,0.00,,CLR,0.00,VWS V14.00,2013-09-11 04:10:00,
2013-09-11 00:15:00,69.9,66.2,29.90,SSW,207,0.0,0.0,88,0.00,,CLR,0.00,VWS V14.00,2013-09-11 04:15:00,
2013-09-11 00:20:00,69.9,66.2,29.90,SSW,207,0.0,0.0,88,0.00,,CLR,0.00,VWS V14.00,2013-09-11 04:20:00,
2013-09-11 00:25:00,69.9,66.2,29.90,SSW,207,0.0,0.0,88,0.00,,CLR,0.00,VWS V14.00,2013-09-11 04:25:00,
2013-09-11 00:30:00,70.0,66.3,29.90,SSW,207,0.0,0.0,88,0.00,,CLR,0.00,VWS V14.00,2013-09-11 04:30:00,
2013-09-11 00:35:00,70.0,66.0,29.89,SSW,207,0.0,0.0,87,0.00,,CLR,0.00,VWS V14.00,2013-09-11 04:35:00,
2013-09-11 00:40:00,70.1,66.1,29.89,SSW,207,0.0,1.0,87,0.00,,CLR,0.00,VWS V14.00,2013-09-11 04:40:00,
2013-09-11 00:45:00,70.1,66.1,29.89,SSW,207,0.0,1.0,87,0.00,,CLR,0.00,VWS V14.00,2013-09-11 04:45:00,
2013-09-11 00:51:00,70.2,66.2,29.90,SSW,207,0.0,1.0,87,0.00,,CLR,0.00,VWS V14.00,2013-09-11 04:51:00,
2013-09-11 00:56:00,70.4,66.0,29.89,SSW,207,0.0,1.0,86,0.00,,CLR,0.00,VWS V14.00,2013-09-11 04:56:00,
2013-09-11 01:00:00,69.7,66.3,29.90,SSW,207,0.0,0.0,89,0.00,,OVC120,0.00,VWS V14.00,2013-09-11 05:00:00,
2013-09-11 01:01:00,70.6,66.2,29.89,SSW,207,0.0,0.0,86,0.00,,CLR,0.00,VWS V14.00,2013-09-11 05:01:00,
2013-09-11 01:06:00,70.6,66.2,29.89,SSW,207,0.0,0.0,86,0.00,,CLR,0.00,VWS V14.00,2013-09-11 05:06:00,
2013-09-11 01:11:00,70.6,66.2,29.89,SSW,207,0.0,0.0,86,0.00,,CLR,0.00,VWS V14.00,2013-09-11 05:11:00,
2013-09-11 01:16:00,70.4,66.0,29.90,SSW,207,0.0,0.0,86,0.00,,CLR,0.00,VWS V14.00,2013-09-11 05:16:00,
2013-09-11 01:21:00,70.1,66.1,29.90,SSW,207,0.0,3.0,87,0.00,,CLR,0.00,VWS V14.00,2013-09-11 05:21:00,
2013-09-11 01:26:00,70.0,66.3,29.90,SSW,207,0.0,3.0,88,0.00,,CLR,0.00,VWS V14.00,2013-09-11 05:26:00,
2013-09-11 01:30:00,70.0,66.3,29.90,SSW,207,0.0,0.0,88,0.00,,OVC120,0.00,VWS V14.00,2013-09-11 05:30:00,
2013-09-11 01:31:00,70.0,66.3,29.90,SSW,207,0.0,0.0,88,0.00,,CLR,0.00,VWS V14.00,2013-09-11 05:31:00,
2013-09-11 01:36:00,70.4,66.7,29.90,SSW,207,0.0,3.0,88,0.00,,CLR,0.00,VWS V14.00,2013-09-11 05:36:00,
2013-09-11 01:41:00,71.0,66.9,29.90,SSW,207,0.0,3.0,87,0.00,,CLR,0.00,VWS V14.00,2013-09-11 05:41:00,
2013-09-11 01:47:00,71.3,66.9,29.90,SSW,207,0.0,3.0,86,0.00,,CLR,0.00,VWS V14.00,2013-09-11 05:47:00,
2013-09-11 01:52:00,71.6,66.9,29.90,SSW,207,0.0,3.0,85,0.00,,CLR,0.00,VWS V14.00,2013-09-11 05:52:00,
2013-09-11 01:57:00,71.7,66.9,29.90,SSW,207,0.0,3.0,85,0.00,,CLR,0.00,VWS V14.00,2013-09-11 05:57:00,
2013-09-11 02:00:00,70.6,66.2,29.89,SSW,207,0.0,1.0,86,0.00,,OVC120,0.00,VWS V14.00,2013-09-11 06:00:00,
2013-09-11 02:02:00,71.8,67.1,29.90,SSW,207,0.0,3.0,85,0.00,,CLR,0.00,VWS V14.00,2013-09-11 06:02:00,
2013-09-11 02:07:00,71.9,66.8,29.90,SSW,207,3.0,3.0,84,0.00,,CLR,0.00,VWS V14.00,2013-09-11 06:07:00,
2013-09-11 02:12:00,71.9,66.8,29.90,SSW,207,2.0,3.0,84,0.00,,CLR,0.00,VWS V14.00,2013-09-11 06:12:00,
2013-09-11 02:17:00,72.2,67.1,29.90,SSW,207,0.0,4.0,84,0.00,,CLR,0.00,VWS V14.00,2013-09-11 06:17:00,
2013-09-11 02:22:00,72.3,67.2,29.90,SSW,207,0.0,4.0,84,0.00,,CLR,0.00,VWS V14.00,2013-09-11 06:22:00,
2013-09-11 02:27:00,72.4,67.3,29.90,SSW,207,0.0,4.0,84,0.00,,CLR,0.00,VWS V14.00,2013-09-11 06:27:00,
2013-09-11 02:30:00,70.0,66.3,29.90,SSW,207,0.0,3.0,88,0.00,,OVC120,0.00,VWS V14.00,2013-09-11 06:30:00,
2013-09-11 02:32:00,72.4,67.3,29.90,SSW,207,1.0,2.0,84,0.00,,CLR,0.00,VWS V14.00,2013-09-11 06:32:00,
2013-09-11 02:37:00,72.5,67.1,29.90,SSW,207,1.0,3.0,83,0.00,,CLR,0.00,VWS V14.00,2013-09-11 06:37:00,
2013-09-11 02:43:00,72.5,67.1,29.90,SSW,207,0.0,3.0,83,0.00,,CLR,0.00,VWS V14.00,2013-09-11 06:43:00,
2013-09-11 02:48:00,72.5,67.1,29.90,SSW,207,0.0,3.0,83,0.00,,CLR,0.00,VWS V14.00,2013-09-11 06:48:00,
2013-09-11 02:53:00,72.6,67.2,29.90,SSW,205,3.0,4.0,83,0.00,,CLR,0.00,VWS V14.00,2013-09-11 06:53:00,
2013-09-11 02:58:00,72.9,67.4,29.90,SSW,210,0.0,7.0,83,0.00,,CLR,0.00,VWS V14.00,2013-09-11 06:58:00,
2013-09-11 03:00:00,71.7,67.0,29.90,SSW,207,2.0,4.0,85,0.00,,OVC120,0.00,VWS V14.00,2013-09-11 07:00:00,
2013-09-11 03:03:00,72.9,67.4,29.90,SSW,211,3.0,4.0,83,0.00,,CLR,0.00,VWS V14.00,2013-09-11 07:03:00,
2013-09-11 03:08:00,73.1,67.3,29.90,SW,223,4.0,6.0,82,0.00,,CLR,0.00,VWS V14.00,2013-09-11 07:08:00,
2013-09-11 03:13:00,73.2,67.4,29.90,SW,222,3.0,6.0,82,0.00,,CLR,0.00,VWS V14.00,2013-09-11 07:13:00,
2013-09-11 03:18:00,73.0,67.2,29.90,SW,222,0.0,6.0,82,0.00,,CLR,0.00,VWS V14.00,2013-09-11 07:18:00,
2013-09-11 03:23:00,72.9,67.1,29.90,SW,222,2.0,6.0,82,0.00,,CLR,0.00,VWS V14.00,2013-09-11 07:23:00,
2013-09-11 03:28:00,72.8,67.0,29.90,South,182,7.0,7.0,82,0.00,,CLR,0.00,VWS V14.00,2013-09-11 07:28:00,
2013-09-11 03:30:00,72.4,67.3,29.90,SSW,207,0.0,4.0,84,0.00,,OVC120,0.00,VWS V14.00,2013-09-11 07:30:00,
2013-09-11 03:33:00,72.9,67.1,29.90,SSW,204,2.0,7.0,82,0.00,,CLR,0.00,VWS V14.00,2013-09-11 07:33:00,
2013-09-11 03:38:00,72.9,67.1,29.90,SSW,204,0.0,7.0,82,0.00,,CLR,0.00,VWS V14.00,2013-09-11 07:38:00,
2013-09-11 03:43:00,72.7,66.9,29.90,SSW,203,0.0,7.0,82,0.00,,CLR,0.00,VWS V14.00,2013-09-11 07:43:00,
2013-09-11 03:49:00,72.6,67.2,29.90,SSW,202,0.0,7.0,83,0.00,,CLR,0.00,VWS V14.00,2013-09-11 07:49:00,
2013-09-11 03:54:00,72.5,67.1,29.90,SSW,204,3.0,7.0,83,0.00,,CLR,0.00,VWS V14.00,2013-09-11 07:54:00,
2013-09-11 03:59:00,72.3,66.8,29.91,SSW,203,2.0,7.0,83,0.00,,CLR,0.00,VWS V14.00,2013-09-11 07:59:00,
2013-09-11 04:00:00,72.3,66.8,29.91,SSW,204,0.0,7.0,83,0.00,,OVC110,0.00,VWS V14.00,2013-09-11 08:00:00,
2013-09-11 04:04:00,72.1,67.0,29.91,SSW,204,3.0,3.0,84,0.00,,CLR,0.00,VWS V14.00,2013-09-11 08:04:00,
2013-09-11 04:09:00,71.9,66.8,29.91,SSW,204,0.0,3.0,84,0.00,,CLR,0.00,VWS V14.00,2013-09-11 08:09:00,
2013-09-11 04:14:00,72.0,66.9,29.91,SSW,204,0.0,3.0,84,0.00,,CLR,0.00,VWS V14.00,2013-09-11 08:14:00,
2013-09-11 04:19:00,72.0,66.9,29.91,SSW,203,0.0,3.0,84,0.00,,CLR,0.00,VWS V14.00,2013-09-11 08:19:00,
2013-09-11 04:24:00,71.8,66.7,29.91,SSW,203,0.0,3.0,84,0.00,,CLR,0.00,VWS V14.00,2013-09-11 08:24:00,
2013-09-11 04:29:00,71.6,66.9,29.91,SSW,204,0.0,3.0,85,0.00,,CLR,0.00,VWS V14.00,2013-09-11 08:29:00,
2013-09-11 04:30:00,72.8,67.0,29.90,SSW,202,0.0,7.0,82,0.00,,OVC120,0.00,VWS V14.00,2013-09-11 08:30:00,
2013-09-11 04:34:00,71.3,66.6,29.91,SSW,203,0.0,0.0,85,0.00,,CLR,0.00,VWS V14.00,2013-09-11 08:34:00,
2013-09-11 04:39:00,70.9,66.5,29.91,SSW,203,0.0,0.0,86,0.00,,CLR,0.00,VWS V14.00,2013-09-11 08:39:00,
2013-09-11 04:44:00,70.7,66.3,29.91,SSW,203,0.0,1.0,86,0.00,,CLR,0.00,VWS V14.00,2013-09-11 08:44:00,
2013-09-11 04:49:00,70.4,66.0,29.91,SSW,204,0.0,1.0,86,0.00,,CLR,0.00,VWS V14.00,2013-09-11 08:49:00,
2013-09-11 04:55:00,70.1,66.1,29.91,SSW,204,0.0,1.0,87,0.00,,CLR,0.00,VWS V14.00,2013-09-11 08:55:00,
2013-09-11 05:00:00,70.1,66.1,29.91,SSW,204,0.0,1.0,87,0.00,,CLR,0.00,VWS V14.00,2013-09-11 09:00:00,
2013-09-11 05:05:00,69.7,65.7,29.91,SSW,204,0.0,0.0,87,0.00,,CLR,0.00,VWS V14.00,2013-09-11 09:05:00,
2013-09-11 05:10:00,69.4,65.7,29.90,SSW,204,0.0,0.0,88,0.00,,CLR,0.00,VWS V14.00,2013-09-11 09:10:00,
2013-09-11 05:15:00,69.4,66.0,29.91,SSW,204,0.0,1.0,89,0.00,,CLR,0.00,VWS V14.00,2013-09-11 09:15:00,
2013-09-11 05:20:00,69.3,65.9,29.91,SSW,204,0.0,1.0,89,0.00,,CLR,0.00,VWS V14.00,2013-09-11 09:20:00,
2013-09-11 05:25:00,69.2,65.8,29.91,SSW,204,0.0,1.0,89,0.00,,CLR,0.00,VWS V14.00,2013-09-11 09:25:00,
2013-09-11 05:30:00,69.1,65.7,29.91,SSW,203,0.0,0.0,89,0.00,,CLR,0.00,VWS V14.00,2013-09-11 09:30:00,
2013-09-11 05:35:00,68.9,65.5,29.90,SSW,204,0.0,0.0,89,0.00,,CLR,0.00,VWS V14.00,2013-09-11 09:35:00,
2013-09-11 05:40:00,68.9,65.8,29.90,SSW,204,0.0,0.0,90,0.00,,CLR,0.00,VWS V14.00,2013-09-11 09:40:00,
2013-09-11 05:45:00,68.9,65.8,29.90,SSW,203,0.0,0.0,90,0.00,,CLR,0.00,VWS V14.00,2013-09-11 09:45:00,
2013-09-11 05:50:00,68.9,65.8,29.90,SSW,203,0.0,0.0,90,0.00,,CLR,0.00,VWS V14.00,2013-09-11 09:50:00,
2013-09-11 05:55:00,69.0,65.9,29.91,SSW,204,0.0,0.0,90,0.00,,CLR,0.00,VWS V14.00,2013-09-11 09:55:00,
2013-09-11 06:00:00,69.1,66.1,29.91,SSW,204,0.0,0.0,90,0.00,,FEW085,0.00,VWS V14.00,2013-09-11 10:00:00,
2013-09-11 06:06:00,69.2,66.2,29.91,SSW,203,0.0,0.0,90,0.00,,FEW085,0.00,VWS V14.00,2013-09-11 10:06:00,
2013-09-11 06:11:00,69.3,66.6,29.91,SSW,204,0.0,0.0,91,0.00,,FEW085,0.00,VWS V14.00,2013-09-11 10:11:00,
2013-09-11 06:16:00,69.4,66.7,29.91,SSW,204,0.0,0.0,91,0.00,,FEW085,0.00,VWS V14.00,2013-09-11 10:16:00,
2013-09-11 06:21:00,69.4,66.7,29.91,SSW,204,0.0,1.0,91,0.00,,FEW085,0.00,VWS V14.00,2013-09-11 10:21:00,
2013-09-11 06:26:00,69.5,66.8,29.91,SSW,204,0.0,1.0,91,0.00,,FEW085,0.00,VWS V14.00,2013-09-11 10:26:00,
2013-09-11 06:30:00,69.1,65.7,29.91,SSW,204,0.0,1.0,89,0.00,,OVC120,0.00,VWS V14.00,2013-09-11 10:30:00,
2013-09-11 06:31:00,69.5,66.8,29.91,SSW,204,2.0,2.0,91,0.00,,FEW085,0.00,VWS V14.00,2013-09-11 10:31:00,
2013-09-11 06:36:00,69.5,66.8,29.92,SSW,203,0.0,3.0,91,0.00,,FEW085,0.00,VWS V14.00,2013-09-11 10:36:00,
2013-09-11 06:41:00,69.6,66.9,29.92,SSW,203,0.0,3.0,91,0.00,,FEW085,0.00,VWS V14.00,2013-09-11 10:41:00,
2013-09-11 06:46:00,69.6,66.9,29.92,SSW,203,0.0,3.0,91,0.00,,FEW085,0.00,VWS V14.00,2013-09-11 10:46:00,
2013-09-11 06:51:00,69.6,66.9,29.92,SSW,204,0.0,3.0,91,0.00,,FEW085,0.00,VWS V14.00,2013-09-11 10:51:00,
2013-09-11 06:56:00,69.6,66.9,29.92,SSW,204,0.0,3.0,91,0.00,,FEW085,0.00,VWS V14.00,2013-09-11 10:56:00,
2013-09-11 07:00:00,69.0,65.9,29.91,SSW,203,0.0,0.0,90,0.00,,OVC120,0.00,VWS V14.00,2013-09-11 11:00:00,
2013-09-11 07:01:00,69.5,66.8,29.92,SSW,204,0.0,0.0,91,0.00,,SCT090,0.00,VWS V14.00,2013-09-11 11:01:00,
2013-09-11 07:06:00,69.5,66.8,29.92,SSW,204,0.0,0.0,91,0.00,,SCT090,0.00,VWS V14.00,2013-09-11 11:06:00,
2013-09-11 07:11:00,69.5,66.8,29.92,SSW,204,0.0,1.0,91,0.00,,SCT090,0.00,VWS V14.00,2013-09-11 11:11:00,
2013-09-11 07:16:00,69.4,66.7,29.92,SSW,203,1.0,2.0,91,0.00,,SCT090,0.00,VWS V14.00,2013-09-11 11:16:00,
2013-09-11 07:22:00,69.2,66.8,29.93,SSW,203,0.0,2.0,92,0.00,,SCT090,0.00,VWS V14.00,2013-09-11 11:22:00,
2013-09-11 07:27:00,69.3,66.9,29.92,SSW,204,0.0,2.0,92,0.00,,SCT090,0.00,VWS V14.00,2013-09-11 11:27:00,
2013-09-11 07:30:00,69.5,66.8,29.91,SSW,204,0.0,1.0,91,0.00,,OVC120,0.00,VWS V14.00,2013-09-11 11:30:00,
2013-09-11 07:32:00,69.3,66.9,29.92,SSW,204,0.0,1.0,92,0.00,,SCT090,0.00,VWS V14.00,2013-09-11 11:32:00,
2013-09-11 07:37:00,69.3,66.9,29.93,SSW,203,0.0,1.0,92,0.00,,SCT090,0.00,VWS V14.00,2013-09-11 11:37:00,
2013-09-11 07:42:00,69.3,66.9,29.94,SSW,204,0.0,1.0,92,0.00,,SCT090,0.00,VWS V14.00,2013-09-11 11:42:00,
2013-09-11 07:47:00,69.3,66.9,29.94,SSW,204,0.0,1.0,92,0.00,,SCT090,0.00,VWS V14.00,2013-09-11 11:47:00,
2013-09-11 07:52:00,69.4,67.0,29.94,SSW,204,0.0,1.0,92,0.00,,SCT090,0.00,VWS V14.00,2013-09-11 11:52:00,
2013-09-11 07:57:00,69.4,67.3,29.94,SSW,204,0.0,1.0,93,0.00,,SCT090,0.00,VWS V14.00,2013-09-11 11:57:00,
2013-09-11 08:00:00,69.5,66.8,29.92,SSW,204,0.0,3.0,91,0.00,,OVC120,0.00,VWS V14.00,2013-09-11 12:00:00,
2013-09-11 08:02:00,69.7,67.6,29.94,SSW,204,0.0,0.0,93,0.00,,SCT090,0.00,VWS V14.00,2013-09-11 12:02:00,
2013-09-11 08:07:00,69.9,67.8,29.94,SSW,204,0.0,0.0,93,0.00,,SCT090,0.00,VWS V14.00,2013-09-11 12:07:00,
2013-09-11 08:12:00,70.3,68.2,29.94,SSW,203,0.0,0.0,93,0.00,,SCT090,0.00,VWS V14.00,2013-09-11 12:12:00,
2013-09-11 08:17:00,70.7,68.6,29.94,SSW,203,0.0,0.0,93,0.00,,SCT090,0.00,VWS V14.00,2013-09-11 12:17:00,
2013-09-11 08:22:00,71.1,69.0,29.95,SSW,203,0.0,0.0,93,0.00,,SCT090,0.00,VWS V14.00,2013-09-11 12:22:00,
2013-09-11 08:27:00,71.4,69.0,29.95,SSW,204,0.0,0.0,92,0.00,,SCT090,0.00,VWS V14.00,2013-09-11 12:27:00,
2013-09-11 08:30:00,69.3,66.9,29.92,SSW,203,0.0,2.0,92,0.00,,OVC120,0.00,VWS V14.00,2013-09-11 12:30:00,
2013-09-11 08:33:00,71.8,69.3,29.95,SSW,204,0.0,0.0,92,0.00,,SCT100,0.00,VWS V14.00,2013-09-11 12:33:00,
2013-09-11 08:38:00,72.3,69.8,29.95,SSW,203,0.0,0.0,92,0.00,,SCT100,0.00,VWS V14.00,2013-09-11 12:38:00,
2013-09-11 08:43:00,73.0,70.2,29.95,SSW,203,0.0,3.0,91,0.00,,SCT100,0.00,VWS V14.00,2013-09-11 12:43:00,
2013-09-11 08:48:00,73.5,70.4,29.95,SSW,202,0.0,5.0,90,0.00,,SCT100,0.00,VWS V14.00,2013-09-11 12:48:00,
2013-09-11 08:53:00,73.9,70.8,29.95,SSW,202,0.0,5.0,90,0.00,,SCT100,0.00,VWS V14.00,2013-09-11 12:53:00,
2013-09-11 08:58:00,74.4,71.3,29.95,SSW,204,3.0,5.0,90,0.00,,SCT100,0.00,VWS V14.00,2013-09-11 12:58:00,
2013-09-11 09:00:00,69.5,67.4,29.94,SSW,204,0.0,1.0,93,0.00,,OVC120,0.00,VWS V14.00,2013-09-11 13:00:00,
2013-09-11 09:03:00,74.9,71.4,29.95,SSW,203,0.0,4.0,89,0.00,,BKN250,0.00,VWS V14.00,2013-09-11 13:03:00,
2013-09-11 09:08:00,75.4,71.6,29.95,SSW,203,0.0,4.0,88,0.00,,BKN250,0.00,VWS V14.00,2013-09-11 13:08:00,
2013-09-11 09:13:00,75.9,71.8,29.95,SSW,199,0.0,5.0,87,0.00,,BKN250,0.00,VWS V14.00,2013-09-11 13:13:00,
2013-09-11 09:18:00,76.3,72.2,29.95,SSW,196,0.0,5.0,87,0.00,,BKN250,0.00,VWS V14.00,2013-09-11 13:18:00,
2013-09-11 09:23:00,76.6,71.8,29.96,SW,215,0.0,5.0,85,0.00,,BKN250,0.00,VWS V14.00,2013-09-11 13:23:00,
2013-09-11 09:28:00,76.6,71.8,29.95,SW,219,2.0,5.0,85,0.00,,BKN250,0.00,VWS V14.00,2013-09-11 13:28:00,
2013-09-11 09:30:00,71.6,69.2,29.95,SSW,203,0.0,0.0,92,0.00,,OVC120,0.00,VWS V14.00,2013-09-11 13:30:00,
2013-09-11 09:34:00,76.7,72.2,29.96,SW,218,0.0,3.0,86,0.00,,BKN250,0.00,VWS V14.00,2013-09-11 13:34:00,
2013-09-11 09:39:00,76.8,71.9,29.95,SW,222,2.0,4.0,85,0.00,,BKN250,0.00,VWS V14.00,2013-09-11 13:39:00,
2013-09-11 09:44:00,76.6,71.8,29.95,SW,227,0.0,4.0,85,0.00,,BKN250,0.00,VWS V14.00,2013-09-11 13:44:00,
2013-09-11 09:49:00,76.2,71.4,29.95,SSW,205,3.0,5.0,85,0.00,,BKN250,0.00,VWS V14.00,2013-09-11 13:49:00,
2013-09-11 09:54:00,75.8,71.3,29.95,SSW,205,2.0,5.0,86,0.00,,BKN250,0.00,VWS V14.00,2013-09-11 13:54:00,
2013-09-11 09:59:00,75.6,71.5,29.95,SSW,205,0.0,6.0,87,0.00,,BKN250,0.00,VWS V14.00,2013-09-11 13:59:00,
2013-09-11 10:00:00,74.7,71.2,29.95,SSW,203,0.0,5.0,89,0.00,,OVC120,0.00,VWS V14.00,2013-09-11 14:00:00,
2013-09-11 10:04:00,75.5,71.7,29.95,SSW,205,0.0,0.0,88,0.00,,BKN250,0.00,VWS V14.00,2013-09-11 14:04:00,
2013-09-11 10:09:00,75.3,71.5,29.95,SSW,200,0.0,7.0,88,0.00,,BKN250,0.00,VWS V14.00,2013-09-11 14:09:00,
2013-09-11 10:14:00,75.6,72.1,29.96,SSW,201,0.0,7.0,89,0.00,,BKN250,0.00,VWS V14.00,2013-09-11 14:14:00,
2013-09-11 10:19:00,75.7,71.9,29.96,SSW,200,0.0,7.0,88,0.00,,BKN250,0.00,VWS V14.00,2013-09-11 14:19:00,
2013-09-11 10:24:00,75.6,71.8,29.98,SSE,165,0.0,7.0,88,0.00,,BKN250,0.00,VWS V14.00,2013-09-11 14:24:00,
2013-09-11 10:29:00,75.4,71.6,29.98,SSE,167,0.0,7.0,88,0.00,,BKN250,0.00,VWS V14.00,2013-09-11 14:29:00,
2013-09-11 10:30:00,76.6,71.8,29.95,SW,219,0.0,5.0,85,0.00,,OVC120,0.00,VWS V14.00,2013-09-11 14:30:00,
2013-09-11 10:35:00,75.1,71.6,29.98,South,171,3.0,4.0,89,0.00,,BKN250,0.00,VWS V14.00,2013-09-11 14:35:00,
2013-09-11 10:40:00,75.0,71.9,29.98,South,171,0.0,4.0,90,0.00,,BKN250,0.00,VWS V14.00,2013-09-11 14:40:00,
2013-09-11 10:45:00,75.1,72.0,29.97,South,171,0.0,4.0,90,0.00,,BKN250,0.00,VWS V14.00,2013-09-11 14:45:00,
2013-09-11 10:50:00,75.5,72.4,29.97,South,173,0.0,4.0,90,0.00,,BKN250,0.00,VWS V14.00,2013-09-11 14:50:00,
2013-09-11 10:55:00,77.0,73.2,29.96,South,173,0.0,4.0,88,0.00,,BKN250,0.00,VWS V14.00,2013-09-11 14:55:00,
2013-09-11 11:00:00,77.9,72.7,29.96,South,169,0.0,1.0,84,0.00,,BKN250,0.00,VWS V14.00,2013-09-11 15:00:00,
2013-09-11 11:05:00,78.7,72.4,29.96,East,99,0.0,5.0,81,0.00,,BKN250,0.00,VWS V14.00,2013-09-11 15:05:00,
2013-09-11 11:10:00,79.8,71.9,29.96,ESE,103,0.0,5.0,77,0.00,,BKN250,0.00,VWS V14.00,2013-09-11 15:10:00,
2013-09-11 11:15:00,80.5,69.4,29.96,SSE,164,3.0,5.0,69,0.00,,BKN250,0.00,VWS V14.00,2013-09-11 15:15:00,
2013-09-11 11:20:00,80.1,69.9,29.96,SSE,167,0.0,5.0,71,0.00,,BKN250,0.00,VWS V14.00,2013-09-11 15:20:00,
2013-09-11 11:25:00,80.2,70.4,29.95,SSE,167,0.0,5.0,72,0.00,,BKN250,0.00,VWS V14.00,2013-09-11 15:25:00,
2013-09-11 11:30:00,80.3,69.6,29.95,SSE,167,0.0,2.0,70,0.00,,BKN250,0.00,VWS V14.00,2013-09-11 15:30:00,
2013-09-11 11:35:00,79.6,69.8,29.95,South,190,0.0,5.0,72,0.00,,BKN250,0.00,VWS V14.00,2013-09-11 15:35:00,
2013-09-11 11:41:00,79.1,69.7,29.95,South,190,0.0,5.0,73,0.00,,BKN250,0.00,VWS V14.00,2013-09-11 15:41:00,
2013-09-11 11:46:00,78.7,70.1,29.95,South,190,0.0,5.0,75,0.00,,BKN250,0.00,VWS V14.00,2013-09-11 15:46:00,
2013-09-11 11:51:00,78.6,70.0,29.95,South,190,0.0,5.0,75,0.00,,BKN250,0.00,VWS V14.00,2013-09-11 15:51:00,
2013-09-11 11:56:00,78.6,70.0,29.94,South,190,0.0,5.0,75,0.00,,BKN250,0.00,VWS V14.00,2013-09-11 15:56:00,
2013-09-11 12:00:00,77.9,72.7,29.96,South,169,0.0,4.0,84,0.00,,OVC120,0.00,VWS V14.00,2013-09-11 16:00:00,
2013-09-11 12:01:00,78.4,70.2,29.94,SSW,196,0.0,4.0,76,0.00,,-RA,0.00,VWS V14.00,2013-09-11 16:01:00,
2013-09-11 12:06:00,78.6,70.4,29.94,SSW,196,2.0,4.0,76,0.00,,-RA,0.00,VWS V14.00,2013-09-11 16:06:00,
2013-09-11 12:11:00,78.7,70.1,29.94,SSW,195,0.0,4.0,75,0.00,,-RA,0.00,VWS V14.00,2013-09-11 16:11:00,
2013-09-11 12:16:00,79.1,70.1,29.93,SSW,195,0.0,4.0,74,0.00,,-RA,0.00,VWS V14.00,2013-09-11 16:16:00,
2013-09-11 12:21:00,79.5,71.3,29.93,SSW,196,0.0,4.0,76,0.00,,-RA,0.00,VWS V14.00,2013-09-11 16:21:00,
2013-09-11 12:26:00,79.6,71.0,29.93,SSW,195,5.0,6.0,75,0.00,,-RA,0.00,VWS V14.00,2013-09-11 16:26:00,
2013-09-11 12:30:00,80.3,70.1,29.95,SSE,167,1.0,5.0,71,0.00,,OVC120,0.00,VWS V14.00,2013-09-11 16:30:00,
2013-09-11 12:31:00,79.4,71.2,29.92,SSW,202,3.0,3.0,76,0.00,,-RA,0.00,VWS V14.00,2013-09-11 16:31:00,
2013-09-11 12:37:00,79.7,71.1,29.93,SSW,205,2.0,5.0,75,0.00,,-RA,0.00,VWS V14.00,2013-09-11 16:37:00,
2013-09-11 12:42:00,80.0,71.4,29.93,SSW,205,0.0,5.0,75,0.00,,-RA,0.00,VWS V14.00,2013-09-11 16:42:00,
2013-09-11 12:47:00,80.3,71.3,29.94,SSW,205,0.0,5.0,74,0.00,,-RA,0.00,VWS V14.00,2013-09-11 16:47:00,
2013-09-11 12:52:00,80.5,71.5,29.94,SSW,198,3.0,5.0,74,0.00,,-RA,0.00,VWS V14.00,2013-09-11 16:52:00,
2013-09-11 12:57:00,80.3,71.7,29.94,SSW,198,0.0,5.0,75,0.00,,-RA,0.00,VWS V14.00,2013-09-11 16:57:00,
2013-09-11 13:00:00,78.4,69.8,29.94,SSW,196,2.0,5.0,75,0.00,,OVC120,0.00,VWS V14.00,2013-09-11 17:00:00,
2013-09-11 13:02:00,80.4,71.8,29.94,SSW,198,0.0,0.0,75,0.00,,BKN220,0.00,VWS V14.00,2013-09-11 17:02:00,
2013-09-11 13:07:00,80.8,72.1,29.94,SSW,198,0.0,1.0,75,0.00,,BKN220,0.00,VWS V14.00,2013-09-11 17:07:00,
2013-09-11 13:12:00,80.9,71.8,29.94,SSW,198,0.0,2.0,74,0.00,,BKN220,0.00,VWS V14.00,2013-09-11 17:12:00,
2013-09-11 13:17:00,80.8,72.1,29.93,SSW,198,0.0,2.0,75,0.00,,BKN220,0.00,VWS V14.00,2013-09-11 17:17:00,
2013-09-11 13:22:00,80.6,71.2,29.93,SSW,200,0.0,6.0,73,0.00,,BKN220,0.00,VWS V14.00,2013-09-11 17:22:00,
2013-09-11 13:27:00,80.4,72.2,29.93,SSW,205,0.0,6.0,76,0.00,,BKN220,0.00,VWS V14.00,2013-09-11 17:27:00,
2013-09-11 13:30:00,79.4,70.8,29.92,SSW,200,3.0,6.0,75,0.00,,OVC120,0.00,VWS V14.00,2013-09-11 17:30:00,
2013-09-11 13:32:00,81.4,72.7,29.93,SSW,198,4.0,6.0,75,0.00,,BKN220,0.00,VWS V14.00,2013-09-11 17:32:00,
2013-09-11 13:37:00,80.9,71.0,29.93,SW,223,1.0,7.0,72,0.00,,BKN220,0.00,VWS V14.00,2013-09-11 17:37:00,
2013-09-11 13:42:00,79.8,70.4,29.93,SSW,206,2.0,8.0,73,0.00,,BKN220,0.00,VWS V14.00,2013-09-11 17:42:00,
2013-09-11 13:48:00,79.4,71.9,29.93,SSW,203,0.0,8.0,78,0.00,,BKN220,0.00,VWS V14.00,2013-09-11 17:48:00,
2013-09-11 13:53:00,79.4,71.2,29.93,SSW,205,0.0,8.0,76,0.00,,BKN220,0.00,VWS V14.00,2013-09-11 17:53:00,
2013-09-11 13:58:00,79.6,71.8,29.93,SSW,205,0.0,8.0,77,0.00,,BKN220,0.00,VWS V14.00,2013-09-11 17:58:00,
2013-09-11 14:00:00,80.3,71.7,29.94,SSW,198,0.0,5.0,75,0.00,,OVC120,0.00,VWS V14.00,2013-09-11 18:00:00,
2013-09-11 14:03:00,80.2,71.9,29.93,SSW,200,5.0,6.0,76,0.00,,BKN220,0.00,VWS V14.00,2013-09-11 18:03:00,
2013-09-11 14:08:00,81.4,73.1,29.92,SSW,198,7.0,7.0,76,0.00,,BKN220,0.00,VWS V14.00,2013-09-11 18:08:00,
2013-09-11 14:13:00,81.9,71.6,29.92,SSW,205,0.0,7.0,71,0.00,,BKN220,0.00,VWS V14.00,2013-09-11 18:13:00,
2013-09-11 14:18:00,82.7,72.3,29.92,SSW,208,0.0,7.0,71,0.00,,BKN220,0.00,VWS V14.00,2013-09-11 18:18:00,
2013-09-11 14:23:00,83.5,71.8,29.92,SSW,213,1.0,7.0,68,0.00,,BKN220,0.00,VWS V14.00,2013-09-11 18:23:00,
2013-09-11 14:28:00,84.4,71.8,29.92,SSW,212,0.0,8.0,66,0.00,,BKN220,0.00,VWS V14.00,2013-09-11 18:28:00,
2013-09-11 14:30:00,80.9,73.4,29.93,SSW,201,3.0,6.0,78,0.00,,OVC120,0.00,VWS V14.00,2013-09-11 18:30:00,
2013-09-11 14:33:00,85.0,71.9,29.92,SSW,202,2.0,6.0,65,0.00,,BKN220,0.00,VWS V14.00,2013-09-11 18:33:00,
2013-09-11 14:38:00,85.7,70.2,29.92,WSW,257,0.0,6.0,60,0.00,,BKN220,0.00,VWS V14.00,2013-09-11 18:38:00,
2013-09-11 14:43:00,86.0,71.0,29.92,SSE,165,0.0,10.0,61,0.00,,BKN220,0.00,VWS V14.00,2013-09-11 18:43:00,
2013-09-11 14:49:00,85.1,67.1,29.92,South,187,1.0,10.0,55,0.00,,BKN220,0.00,VWS V14.00,2013-09-11 18:49:00,
2013-09-11 14:54:00,84.7,68.3,29.92,SE,137,3.0,10.0,58,0.00,,BKN220,0.00,VWS V14.00,2013-09-11 18:54:00,
2013-09-11 14:59:00,85.0,68.6,29.92,SW,221,0.0,10.0,58,0.00,,BKN220,0.00,VWS V14.00,2013-09-11 18:59:00,
2013-09-11 15:00:00,79.7,72.2,29.93,SSW,205,1.0,8.0,78,0.00,,OVC120,0.00,VWS V14.00,2013-09-11 19:00:00,
2013-09-11 15:04:00,85.7,69.2,29.92,SE,144,0.0,4.0,58,0.00,,BKN200,0.00,VWS V14.00,2013-09-11 19:04:00,
2013-09-11 15:09:00,85.8,67.2,29.92,East,86,1.0,6.0,54,0.00,,BKN200,0.00,VWS V14.00,2013-09-11 19:09:00,
2013-09-11 15:14:00,84.8,67.4,29.92,SW,227,0.0,7.0,56,0.00,,BKN200,0.00,VWS V14.00,2013-09-11 19:14:00,
2013-09-11 15:19:00,83.9,68.5,29.92,WSW,244,2.0,7.0,60,0.00,,BKN200,0.00,VWS V14.00,2013-09-11 19:19:00,
2013-09-11 15:24:00,83.6,68.3,29.92,SE,140,0.0,7.0,60,0.00,,BKN200,0.00,VWS V14.00,2013-09-11 19:24:00,
2013-09-11 15:29:00,82.9,67.6,29.92,WSW,245,0.0,7.0,60,0.00,,BKN200,0.00,VWS V14.00,2013-09-11 19:29:00,
2013-09-11 15:30:00,84.6,72.0,29.92,SSW,212,2.0,8.0,66,0.00,,OVC120,0.00,VWS V14.00,2013-09-11 19:30:00,
2013-09-11 15:34:00,82.4,68.1,29.93,SSW,207,0.0,9.0,62,0.00,,BKN200,0.00,VWS V14.00,2013-09-11 19:34:00,
2013-09-11 15:39:00,82.6,66.8,29.92,WSW,240,0.0,9.0,59,0.00,,BKN200,0.00,VWS V14.00,2013-09-11 19:39:00,
2013-09-11 15:45:00,82.6,67.3,29.93,SSW,201,0.0,9.0,60,0.00,,BKN200,0.00,VWS V14.00,2013-09-11 19:45:00,
2013-09-11 15:50:00,82.0,67.7,29.93,South,184,0.0,9.0,62,0.00,,BKN200,0.00,VWS V14.00,2013-09-11 19:50:00,
2013-09-11 15:55:00,81.9,67.6,29.93,SE,130,0.0,9.0,62,0.00,,BKN200,0.00,VWS V14.00,2013-09-11 19:55:00,
2013-09-11 16:00:00,82.1,66.4,29.93,South,186,0.0,0.0,59,0.00,,BKN200,0.00,VWS V14.00,2013-09-11 20:00:00,
2013-09-11 16:05:00,81.7,66.0,29.93,SW,215,3.0,8.0,59,0.00,,BKN200,0.00,VWS V14.00,2013-09-11 20:05:00,
2013-09-11 16:10:00,80.9,65.7,29.93,ENE,74,0.0,8.0,60,0.00,,BKN200,0.00,VWS V14.00,2013-09-11 20:10:00,
2013-09-11 16:15:00,80.1,65.4,29.93,West,269,0.0,8.0,61,0.00,,BKN200,0.00,VWS V14.00,2013-09-11 20:15:00,
2013-09-11 16:20:00,79.6,65.0,29.93,West,261,3.0,8.0,61,0.00,,BKN200,0.00,VWS V14.00,2013-09-11 20:20:00,
2013-09-11 16:25:00,79.1,65.4,29.93,SW,229,0.0,8.0,63,0.00,,BKN200,0.00,VWS V14.00,2013-09-11 20:25:00,
2013-09-11 16:30:00,79.0,66.7,29.93,SW,232,0.0,2.0,66,0.00,,BKN200,0.00,VWS V14.00,2013-09-11 20:30:00,
2013-09-11 16:35:00,79.0,65.8,29.93,East,86,1.0,7.0,64,0.00,,BKN200,0.00,VWS V14.00,2013-09-11 20:35:00,
2013-09-11 16:40:00,78.7,66.0,29.93,NW,305,0.0,7.0,65,0.00,,BKN200,0.00,VWS V14.00,2013-09-11 20:40:00,
2013-09-11 16:45:00,78.4,66.1,29.93,WNW,290,3.0,7.0,66,0.00,,BKN200,0.00,VWS V14.00,2013-09-11 20:45:00,
2013-09-11 16:51:00,77.7,65.4,29.93,SSW,202,0.0,7.0,66,0.00,,BKN200,0.00,VWS V14.00,2013-09-11 20:51:00,
2013-09-11 16:56:00,77.5,65.7,29.94,SSE,168,3.0,10.0,67,0.00,,BKN200,0.00,VWS V14.00,2013-09-11 20:56:00,
2013-09-11 17:00:00,82.1,66.4,29.93,South,186,0.0,9.0,59,0.00,,OVC120,0.00,VWS V14.00,2013-09-11 21:00:00,
2013-09-11 17:01:00,77.6,65.8,29.94,SSE,164,4.0,6.0,67,0.00,,-RA,0.00,VWS V14.00,2013-09-11 21:01:00,
2013-09-11 17:06:00,77.6,65.8,29.94,WSW,248,0.0,8.0,67,0.00,,-RA,0.00,VWS V14.00,2013-09-11 21:06:00,
2013-09-11 17:11:00,77.4,65.2,29.94,SE,128,0.0,8.0,66,0.00,,-RA,0.00,VWS V14.00,2013-09-11 21:11:00,
2013-09-11 17:16:00,77.1,65.3,29.93,South,191,0.0,11.0,67,0.00,,-RA,0.00,VWS V14.00,2013-09-11 21:16:00,
2013-09-11 17:21:00,76.8,65.9,29.93,SSE,157,0.0,11.0,69,0.00,,-RA,0.00,VWS V14.00,2013-09-11 21:21:00,
2013-09-11 17:26:00,76.4,65.9,29.93,SSE,150,3.0,11.0,70,0.00,,-RA,0.00,VWS V14.00,2013-09-11 21:26:00,
2013-09-11 17:30:00,78.9,67.0,29.93,WSW,241,0.0,8.0,67,0.00,,OVC120,0.00,VWS V14.00,2013-09-11 21:30:00,
2013-09-11 17:31:00,75.4,66.5,29.93,South,179,1.0,1.0,74,0.00,,-RA,0.00,VWS V14.00,2013-09-11 21:31:00,
2013-09-11 17:36:00,74.7,67.0,29.92,South,180,0.0,3.0,77,0.00,,-RA,0.00,VWS V14.00,2013-09-11 21:36:00,
2013-09-11 17:41:00,74.3,67.0,29.92,South,180,0.0,3.0,78,0.00,,-RA,0.00,VWS V14.00,2013-09-11 21:41:00,
2013-09-11 17:46:00,74.5,67.6,29.92,South,180,0.0,3.0,79,0.00,,-RA,0.00,VWS V14.00,2013-09-11 21:46:00,
2013-09-11 17:52:00,74.6,67.3,29.91,South,183,0.0,3.0,78,0.00,,-RA,0.00,VWS V14.00,2013-09-11 21:52:00,
2013-09-11 17:57:00,74.4,67.5,29.91,South,180,0.0,4.0,79,0.00,,-RA,0.00,VWS V14.00,2013-09-11 21:57:00,
2013-09-11 18:00:00,77.6,65.8,29.94,SSW,211,0.0,10.0,67,0.00,,OVC120,0.00,VWS V14.00,2013-09-11 22:00:00,
2013-09-11 18:02:00,74.4,67.5,29.92,South,181,0.0,3.0,79,0.00,,BKN200,0.00,VWS V14.00,2013-09-11 22:02:00,
2013-09-11 18:07:00,74.3,67.4,29.92,SSW,212,3.0,4.0,79,0.00,,BKN200,0.00,VWS V14.00,2013-09-11 22:07:00,
2013-09-11 18:12:00,74.2,66.9,29.91,SW,229,0.0,4.0,78,0.00,,BKN200,0.00,VWS V14.00,2013-09-11 22:12:00,
2013-09-11 18:17:00,74.1,67.2,29.91,SW,222,0.0,4.0,79,0.00,,BKN200,0.00,VWS V14.00,2013-09-11 22:17:00,
2013-09-11 18:22:00,74.2,67.3,29.91,SW,222,0.0,4.0,79,0.00,,BKN200,0.00,VWS V14.00,2013-09-11 22:22:00,
2013-09-11 18:27:00,74.2,67.3,29.91,SW,222,0.0,4.0,79,0.00,,BKN200,0.00,VWS V14.00,2013-09-11 22:27:00,
2013-09-11 18:30:00,75.6,66.3,29.93,South,184,0.0,11.0,73,0.00,,OVC120,0.00,VWS V14.00,2013-09-11 22:30:00,
2013-09-11 18:32:00,74.2,67.3,29.91,SW,222,0.0,1.0,79,0.00,,BKN200,0.00,VWS V14.00,2013-09-11 22:32:00,
2013-09-11 18:37:00,74.2,67.3,29.91,SW,222,0.0,4.0,79,0.00,,BKN200,0.00,VWS V14.00,2013-09-11 22:37:00,
2013-09-11 18:42:00,74.3,68.1,29.91,SW,223,0.0,4.0,81,0.00,,BKN200,0.00,VWS V14.00,2013-09-11 22:42:00,
2013-09-11 18:47:00,74.2,67.3,29.91,SW,222,0.0,4.0,79,0.00,,BKN200,0.00,VWS V14.00,2013-09-11 22:47:00,
2013-09-11 18:52:00,73.9,67.3,29.91,SW,216,0.0,5.0,80,0.00,,BKN200,0.00,VWS V14.00,2013-09-11 22:52:00,
2013-09-11 18:58:00,73.7,67.5,29.91,SW,216,0.0,5.0,81,0.00,,BKN200,0.00,VWS V14.00,2013-09-11 22:58:00,
2013-09-11 19:00:00,74.4,67.5,29.92,South,180,2.0,4.0,79,0.00,,OVC120,0.00,VWS V14.00,2013-09-11 23:00:00,
2013-09-11 19:03:00,73.5,67.3,29.91,SW,216,0.0,0.0,81,0.00,,BKN200,0.00,VWS V14.00,2013-09-11 23:03:00,
2013-09-11 19:08:00,73.3,67.5,29.91,SW,215,0.0,1.0,82,0.00,,BKN200,0.00,VWS V14.00,2013-09-11 23:08:00,
2013-09-11 19:13:00,73.1,67.3,29.91,SW,216,0.0,1.0,82,0.00,,BKN200,0.00,VWS V14.00,2013-09-11 23:13:00,
2013-09-11 19:18:00,72.9,67.4,29.91,SW,216,0.0,1.0,83,0.00,,BKN200,0.00,VWS V14.00,2013-09-11 23:18:00,
2013-09-11 19:23:00,72.7,67.2,29.91,SW,216,0.0,2.0,83,0.00,,BKN200,0.00,VWS V14.00,2013-09-11 23:23:00,
2013-09-11 19:28:00,72.7,67.6,29.91,SW,216,0.0,2.0,84,0.00,,BKN200,0.00,VWS V14.00,2013-09-11 23:28:00,
2013-09-11 19:30:00,74.2,67.6,29.91,SW,222,0.0,4.0,80,0.00,,OVC120,0.00,VWS V14.00,2013-09-11 23:30:00,
2013-09-11 19:33:00,72.6,67.8,29.91,SW,216,0.0,1.0,85,0.00,,BKN200,0.00,VWS V14.00,2013-09-11 23:33:00,
2013-09-11 19:38:00,72.4,67.6,29.91,SW,215,0.0,1.0,85,0.00,,BKN200,0.00,VWS V14.00,2013-09-11 23:38:00,
2013-09-11 19:43:00,72.1,67.7,29.91,SW,215,0.0,1.0,86,0.00,,BKN200,0.00,VWS V14.00,2013-09-11 23:43:00,
2013-09-11 19:48:00,71.8,67.4,29.91,SW,216,0.0,1.0,86,0.00,,BKN200,0.00,VWS V14.00,2013-09-11 23:48:00,
2013-09-11 19:53:00,71.5,67.1,29.91,SW,216,0.0,1.0,86,0.00,,BKN200,0.00,VWS V14.00,2013-09-11 23:53:00,
2013-09-11 19:58:00,71.2,67.1,29.91,SW,215,0.0,1.0,87,0.00,,BKN200,0.00,VWS V14.00,2013-09-11 23:58:00,
2013-09-11 20:00:00,71.0,66.9,29.91,SW,215,0.0,1.0,87,0.00,,OVC110,0.00,VWS V14.00,2013-09-12 00:00:00,
2013-09-11 20:03:00,70.7,66.7,29.91,SW,215,0.0,0.0,87,0.00,,BKN200,0.00,VWS V14.00,2013-09-12 00:03:00,
2013-09-11 20:09:00,70.3,66.6,29.91,SW,216,0.0,0.0,88,0.00,,BKN200,0.00,VWS V14.00,2013-09-12 00:09:00,
2013-09-11 20:14:00,70.1,66.7,29.91,SW,216,0.0,0.0,89,0.00,,BKN200,0.00,VWS V14.00,2013-09-12 00:14:00,
2013-09-11 20:19:00,69.9,66.5,29.91,SW,215,0.0,0.0,89,0.00,,BKN200,0.00,VWS V14.00,2013-09-12 00:19:00,
2013-09-11 20:24:00,69.7,66.6,29.90,SW,216,0.0,0.0,90,0.00,,BKN200,0.00,VWS V14.00,2013-09-12 00:24:00,
2013-09-11 20:29:00,69.4,66.3,29.90,SW,216,0.0,0.0,90,0.00,,BKN200,0.00,VWS V14.00,2013-09-12 00:29:00,
2013-09-11 20:30:00,69.3,66.2,29.90,SW,216,0.0,0.0,90,0.00,,OVC110,0.00,VWS V14.00,2013-09-12 00:30:00,
2013-09-11 20:34:00,69.1,66.4,29.91,SW,216,0.0,0.0,91,0.00,,BKN200,0.00,VWS V14.00,2013-09-12 00:34:00,
2013-09-11 20:39:00,68.9,66.2,29.91,SW,216,0.0,0.0,91,0.00,,BKN200,0.00,VWS V14.00,2013-09-12 00:39:00,
2013-09-11 20:44:00,68.7,66.3,29.91,SW,216,0.0,0.0,92,0.00,,BKN200,0.00,VWS V14.00,2013-09-12 00:44:00,
2013-09-11 20:49:00,68.5,66.1,29.91,SW,216,0.0,0.0,92,0.00,,BKN200,0.00,VWS V14.00,2013-09-12 00:49:00,
2013-09-11 20:54:00,68.2,65.8,29.91,SW,215,0.0,0.0,92,0.00,,BKN200,0.00,VWS V14.00,2013-09-12 00:54:00,
2013-09-11 20:59:00,67.9,65.8,29.91,SW,216,0.0,0.0,93,0.00,,BKN200,0.00,VWS V14.00,2013-09-12 00:59:00,
2013-09-11 21:00:00,71.0,66.9,29.91,SW,215,0.0,1.0,87,0.00,,OVC120,0.00,VWS V14.00,2013-09-12 01:00:00,
2013-09-11 21:04:00,67.6,65.5,29.91,SW,216,0.0,0.0,93,0.00,,BKN200,0.00,VWS V14.00,2013-09-12 01:04:00,
2013-09-11 21:10:00,67.4,65.6,29.91,SW,215,0.0,0.0,94,0.00,,BKN200,0.00,VWS V14.00,2013-09-12 01:10:00,
2013-09-11 21:15:00,67.1,65.3,29.92,SW,215,0.0,0.0,94,0.00,,BKN200,0.00,VWS V14.00,2013-09-12 01:15:00,
2013-09-11 21:20:00,66.7,64.9,29.91,SW,215,0.0,0.0,94,0.00,,BKN200,0.00,VWS V14.00,2013-09-12 01:20:00,
2013-09-11 21:25:00,66.3,64.5,29.91,SW,216,0.0,0.0,94,0.00,,BKN200,0.00,VWS V14.00,2013-09-12 01:25:00,
2013-09-11 21:30:00,66.1,64.6,29.91,SW,215,0.0,0.0,95,0.00,,BKN200,0.00,VWS V14.00,2013-09-12 01:30:00,
2013-09-11 21:35:00,65.9,64.4,29.92,SW,215,0.0,0.0,95,0.00,,BKN200,0.00,VWS V14.00,2013-09-12 01:35:00,
2013-09-11 21:40:00,66.0,64.5,29.92,SW,215,0.0,0.0,95,0.00,,BKN200,0.00,VWS V14.00,2013-09-12 01:40:00,
2013-09-11 21:45:00,65.6,64.1,29.91,SW,215,0.0,0.0,95,0.00,,BKN200,0.00,VWS V14.00,2013-09-12 01:45:00,
2013-09-11 21:50:00,65.5,64.3,29.91,SW,216,0.0,0.0,96,0.00,,BKN200,0.00,VWS V14.00,2013-09-12 01:50:00,
2013-09-11 21:55:00,65.5,64.3,29.92,SW,216,0.0,0.0,96,0.00,,BKN200,0.00,VWS V14.00,2013-09-12 01:55:00,
2013-09-11 22:00:00,65.0,63.8,29.91,SW,215,0.0,0.0,96,0.00,,BKN200,0.00,VWS V14.00,2013-09-12 02:00:00,
2013-09-11 22:05:00,64.6,63.4,29.92,SW,216,0.0,0.0,96,0.00,,BKN200,0.00,VWS V14.00,2013-09-12 02:05:00,
2013-09-11 22:11:00,64.7,63.5,29.92,SW,216,0.0,0.0,96,0.00,,BKN200,0.00,VWS V14.00,2013-09-12 02:11:00,
2013-09-11 22:16:00,64.7,63.8,29.91,SW,216,0.0,0.0,97,0.00,,BKN200,0.00,VWS V14.00,2013-09-12 02:16:00,
2013-09-11 22:21:00,64.5,63.6,29.91,SW,216,0.0,0.0,97,0.00,,BKN200,0.00,VWS V14.00,2013-09-12 02:21:00,
2013-09-11 22:26:00,64.4,63.5,29.91,SW,216,0.0,0.0,97,0.00,,BKN200,0.00,VWS V14.00,2013-09-12 02:26:00,
2013-09-11 22:30:00,64.3,63.4,29.91,SW,216,0.0,0.0,97,0.00,,OVC110,0.00,VWS V14.00,2013-09-12 02:30:00,
2013-09-11 22:31:00,64.3,63.4,29.91,SW,215,0.0,0.0,97,0.00,,BKN200,0.00,VWS V14.00,2013-09-12 02:31:00,
2013-09-11 22:36:00,64.5,63.6,29.91,SW,215,0.0,0.0,97,0.00,,BKN200,0.00,VWS V14.00,2013-09-12 02:36:00,
2013-09-11 22:41:00,64.5,63.6,29.91,SW,216,0.0,0.0,97,0.00,,BKN200,0.00,VWS V14.00,2013-09-12 02:41:00,
2013-09-11 22:46:00,64.4,63.5,29.91,SW,216,0.0,0.0,97,0.00,,BKN200,0.00,VWS V14.00,2013-09-12 02:46:00,
2013-09-11 22:51:00,64.5,63.6,29.91,SW,216,0.0,0.0,97,0.00,,BKN200,0.00,VWS V14.00,2013-09-12 02:51:00,
2013-09-11 22:56:00,64.4,63.5,29.91,SW,215,0.0,0.0,97,0.00,,BKN200,0.00,VWS V14.00,2013-09-12 02:56:00,
2013-09-11 23:00:00,65.1,63.9,29.92,SW,215,0.0,0.0,96,0.00,,OVC120,0.00,VWS V14.00,2013-09-12 03:00:00,
2013-09-11 23:02:00,64.3,63.4,29.91,SW,216,0.0,0.0,97,0.00,,BKN140,0.00,VWS V14.00,2013-09-12 03:02:00,
2013-09-11 23:07:00,64.1,63.5,29.90,SW,216,0.0,0.0,98,0.00,,BKN140,0.00,VWS V14.00,2013-09-12 03:07:00,
2013-09-11 23:12:00,64.0,63.4,29.91,SW,216,0.0,0.0,98,0.00,,BKN140,0.00,VWS V14.00,2013-09-12 03:12:00,
2013-09-11 23:17:00,64.0,63.4,29.91,SW,216,0.0,0.0,98,0.00,,BKN140,0.00,VWS V14.00,2013-09-12 03:17:00,
2013-09-11 23:22:00,63.9,63.3,29.91,SW,215,0.0,0.0,98,0.00,,BKN140,0.00,VWS V14.00,2013-09-12 03:22:00,
2013-09-11 23:27:00,63.6,63.0,29.90,SW,215,0.0,0.0,98,0.00,,BKN140,0.00,VWS V14.00,2013-09-12 03:27:00,
2013-09-11 23:30:00,64.3,63.4,29.91,SW,216,0.0,0.0,97,0.00,,OVC120,0.00,VWS V14.00,2013-09-12 03:30:00,
2013-09-11 23:32:00,63.4,62.8,29.90,SW,216,0.0,0.0,98,0.00,,BKN140,0.00,VWS V14.00,2013-09-12 03:32:00,
2013-09-11 23:37:00,63.6,63.0,29.90,SW,216,0.0,0.0,98,0.00,,BKN140,0.00,VWS V14.00,2013-09-12 03:37:00,
2013-09-11 23:42:00,63.4,62.8,29.90,SW,216,0.0,0.0,98,0.00,,BKN140,0.00,VWS V14.00,2013-09-12 03:42:00,
2013-09-11 23:48:00,62.4,61.5,29.90,SW,215,0.0,0.0,97,0.00,,BKN140,0.00,VWS V14.00,2013-09-12 03:48:00,
2013-09-11 23:53:00,62.1,61.5,29.90,SW,216,0.0,0.0,98,0.00,,BKN140,0.00,VWS V14.00,2013-09-12 03:53:00,
2013-09-11 23:58:00,62.2,61.6,29.90,SW,216,0.0,0.0,98,0.00,,BKN140,0.00,VWS V14.00,2013-09-12 03:58:00,